Powrót do katalogu

QIANFAN-96

AktywnyŁącznośćPO
NORAD 66038·PAYLOAD·🇨🇳 China

Wystrzelony Oct 17, 2025 z Taiyuan Satellite Launch Center

Loading…

Następne Przeloty (najbliższe 24 godziny)

TLE

ŚwieżeSource: Space-Track

Epoka: Sep 14, 2026, 08:11 UTC

1 66038U 25233F   26257.34125749  .00000074  00000-0  96646-4 0  9991
2 66038  89.0048  34.1894 0001843  89.6757 270.4605 13.51028323 45215

Śledź QIANFAN-96 w czasie rzeczywistym z AllMySat

Download on the App Store